This is the latest recevied weather packets stored in our database for station/object K5SVV. If no packets are shown the sender has not sent any weather packets the latest 10 day(s).
| Time | Temp. | Humidity | Pressure | Rain* | Wind** | Luminosity | Snow |
|---|---|---|---|---|---|---|---|
| 1777413239 | 26.67° C | 86% | 1009.1 hPa | 0 mm | - | 12 W/m² | - |
| 1777412935 | 27.22° C | 86% | 1009.4 hPa | 0 mm | - | 21 W/m² | - |
| 1777412634 | 27.22° C | 86% | 1009.6 hPa | 0 mm | - | 16 W/m² | - |
| 1777412331 | 27.22° C | 85% | 1009.1 hPa | 0 mm | - | 57 W/m² | - |
| 1777412027 | 27.22° C | 85% | 1009.5 hPa | 0 mm | - | 101 W/m² | - |
| 1777411726 | 27.78° C | 84% | 1009.1 hPa | 0 mm | - | 106 W/m² | - |
| 1777411421 | 27.22° C | 84% | 1009.1 hPa | 0 mm | - | 217 W/m² | - |
| 1777411121 | 27.78° C | 84% | 1009 hPa | 0 mm | - | 242 W/m² | - |
| 1777410815 | 27.78° C | 84% | 1008.9 hPa | 0 mm | - | 187 W/m² | - |
| 1777410514 | 27.22° C | 85% | 1008.8 hPa | 0 mm | - | 471 W/m² | - |
| 1777410214 | 27.78° C | 84% | 1008.9 hPa | 0 mm | - | 167 W/m² | - |
| 1777409909 | 27.78° C | 85% | 1008.9 hPa | 0 mm | - | 269 W/m² | - |
| 1777409605 | 27.78° C | 84% | 1008.8 hPa | 0 mm | - | 203 W/m² | - |
| 1777409300 | 27.78° C | 85% | 1008.7 hPa | 0 mm | - | 603 W/m² | - |
| 1777408997 | 27.78° C | 84% | 1009.2 hPa | 0 mm | - | 369 W/m² | - |
| 1777408694 | 27.78° C | 84% | 1009.4 hPa | 0 mm | - | 316 W/m² | - |
| 1777408389 | 27.22° C | 85% | 1009.6 hPa | 0 mm | - | 461 W/m² | - |
| 1777408084 | 27.22° C | 85% | 1009.2 hPa | 0 mm | - | 379 W/m² | - |
| 1777407779 | 27.78° C | 85% | 1009.1 hPa | 0 mm | - | 317 W/m² | - |
| 1777407475 | 27.22° C | 86% | 1009.3 hPa | 0 mm | - | 505 W/m² | - |
| 1777407170 | 27.22° C | 86% | 1009.1 hPa | 0 mm | - | 505 W/m² | - |
| 1777406865 | 27.22° C | 87% | 1009.3 hPa | 0 mm | - | 501 W/m² | - |
| 1777406561 | 26.67° C | 88% | 1009.5 hPa | 0 mm | - | 384 W/m² | - |
| 1777406257 | 26.67° C | 88% | 1009.4 hPa | 0 mm | - | 205 W/m² | - |
| 1777405955 | 26.67° C | 88% | 1009.4 hPa | 0 mm | - | 310 W/m² | - |
* Rain latest hour (hover to see other rain measurements)
** Current wind speed in m/s (hover to see current wind gust speed)